Home   Weather   Biel   Past weeks

Flag for Switzerland Past Weather in Biel, Switzerland — Yesterday and Last 2 Weeks

Now
40 °F

Quite cool.


Feels Like: 37 °F
Forecast: 32 / 65 °F
Wind: 5 mph from East

Location: Grenchen

Current Time: Apr 29, 2017 at 11:24:22 pm

Latest Report: Apr 29, 2017 at 10:00 pm


Visibility: N/A

Pressure: 30.02 "Hg

Humidity: 80%

Dew Point: 35 °F

Location of BielLocation

Past Weather in Biel — Graph

°F

Biel Temperature Yesterday

Maximum temperature yesterday: 47 °F (at 7:00 pm)
Minimum temperature yesterday: 37 °F (at 3:00 am)
Average temperature yesterday: 41 °F

High & Low Weather Summary for the Past Weeks

 TemperatureHumidityPressure
High69 °F (Apr 24, 5:00 pm)99% (Apr 25, 7:00 am)30.57 "Hg (Apr 25, 7:00 am)
Low25 °F (Apr 21, 6:00 am)23% (Apr 21, 5:00 pm)29.74 "Hg (Apr 25, 11:00 pm)
Average45 °F70%30.15 "Hg
* Reported Apr 14 9:00 pm — Apr 29 9:00 pm, Biel, Weather by CustomWeather, © 2017

Note: Actual official high and low records may vary slightly from our data, if they occured in-between our weather recording intervals... More about our weather records

Advertising

Biel Weather History for the Previous 24 Hours

Scroll right to see more
 ConditionsComfort  
Time TempWeatherWind HumidityBarometerVisibility
9:00 pm
Sat, Apr 29
42 °FQuite cool.3 mph78%30.01 "HgN/A
8:00 pm51 °FCool.5 mph51%29.98 "HgN/A
7:00 pm55 °FRefreshingly cool.8 mph39%29.97 "HgN/A
6:00 pm56 °FRefreshingly cool.6 mph39%29.98 "HgN/A
5:00 pm56 °FRefreshingly cool.6 mph44%29.99 "HgN/A
4:00 pm56 °FRefreshingly cool.3 mph39%30.00 "HgN/A
3:00 pm55 °FCool.5 mph44%30.02 "HgN/A
2:00 pm54 °FCool.8 mph44%30.03 "HgN/A
1:00 pm51 °FCool.8 mph56%30.06 "HgN/A
12:00 pm48 °FCool.7 mph60%30.09 "HgN/A
11:00 am44 °FQuite cool.3 mph85%30.12 "HgN/A
10:00 am39 °FChilly.5 mph96%30.14 "HgN/A
9:00 am32 °FChilly.3 mph99%30.17 "HgN/A
8:00 am31 °FChilly.5 mph99%30.19 "HgN/A
7:00 am30 °FChilly.3 mph99%30.19 "HgN/A
6:00 am30 °FChilly.2 mph99%30.19 "HgN/A
5:00 am30 °FChilly.1 mph99%30.19 "HgN/A
4:00 am31 °FChilly.1 mph99%30.19 "HgN/A
3:00 am31 °FChilly.1 mph98%30.19 "HgN/A
2:00 am32 °FChilly.1 mph98%30.19 "HgN/A
1:00 am33 °FChilly.No wind97%30.19 "HgN/A
12:00 am35 °FChilly.1 mph96%30.17 "HgN/A
11:00 pm
Fri, Apr 28
38 °FChilly.1 mph93%30.16 "HgN/A
Weather by CustomWeather, © 2017

See weather overviewHow to use our weather pages